STARLINK-1026 (44731 NORAD) Tracking and Keplerian Element Data

This shows tracking and keplerian element data for the satellite.

Feedback or suggestion? Click here.




ElementValue
Catalog44731
NameSTARLINK-1026
Epoch Orbit1066
Epoch Day18.25002315
Epoch Year2020
RAAN194.1937
Inclination53.0068
Eccentricity0.0003562
Argument of Perigee5.3077
Mean Anonmoly28.1718
Mean Motion15.73173852
Decay Rate0.00247037
L11 44731U 19074U 20018.25002315 .00247037 00000-0 17146-2 0 9993
L22 44731 53.0068 194.1937 0003562 5.3077 28.1718 15.73173852 10667

Live tracking and technical data element details for STARLINK-1026 (NORAD 44731). STARLINK-1026 can be tracked NOW for your location showing map with azimuth and elevation plus other details from your city location.

Track the satellite on the map from your city or location and see movement details for azimuth, elevation, latitude, longitude, range, height, and movement on the map or in text.







IsCatalogInMostPopularTable: catalog: 44731, numindb: 10
Update: records affected: 1



GetName: 44731 STARLINK-1026

Hit Count: updated at: Sat, 18 Jan 2020 16:58:36 GMT